Location: Unspecified
(36.9193°S, 174.7252°E)
Time: 19:31:08
(UTC+13:00)

Envisat - Pass Details

Date: 24 September 2021
Orbit: 764 x 766 km, 98.2° (Epoch: 18 October)

Event Time Altitude Azimuth Distance (km) Brightness Sun altitude
Rises 03:37:04 0° 50° (NE) 3,227 6.5 -30.0°
Reaches altitude 10° 03:39:50 10° 66° (ENE) 2,310 5.9 -29.5°
Maximum altitude 03:43:37 21° 114° (ESE) 1,670 5.4 -28.8°
Drops below altitude 10° 03:47:25 10° 162° (SSE) 2,332 6.0 -28.2°
Sets 03:50:14 0° 176° (S) 3,267 6.6 -27.6°
